Torna al catalogo

STARLINK-35436

AttivoComunicazioniVLEO
NORAD 65932·PAYLOAD·🇺🇸 United States

Lanciato Oct 8, 2025 da Vandenberg Space Force Base

Loading…

Prossimi Passaggi (prossime 24 ore)

TLE

AggiornatoSource: CelesTrak SupGP

Epoca: Sep 15, 2026, 02:57 UTC

1 65932C 25225Y   26258.12340278  .00065716  00000+0  19413-2 0  2583
2 65932  53.1596   4.8710 0001111  95.4552 279.4236 15.34362134    16

Traccia STARLINK-35436 in tempo reale con AllMySat

Download on the App Store